Weather observations for the past three days for
Dona Ana County Jetport, Santa Teresa
Imperial (Metric)
Date Time (mdt) Wind (mph) Vis. (mi.) Weather Sky Cond. Temperature (ºF) Relative Humidity Wind Chill (°F) Heat Index (°F) Pressure Precipitation (in)
Air Dwpt 6 hour altimeter (in) sea level (mb) 1 hr 3 hr 6 hr
Max. Min.
23 11:35 Calm 10.00 Fair CLR 78.8 59 51% 80 30.22 0.0
23 11:15 N 8 10.00 Fair CLR 78.8 59 51% 80 30.23 0.0
23 10:55 NE 7 10.00 A Few Clouds FEW038 78.8 59 51% 80 30.23 0.0
23 10:35 E 3 10.00 Fair CLR 77 60.8 57% 79 30.23 0.0
23 10:15 NE 7 10.00 Fair CLR 77 60.8 57% 79 30.24 0.0
23 09:55 Vrbl 5 10.00 Fair CLR 75.2 60.8 61% 77 30.24 0.0
23 09:35 N 5 10.00 Fair CLR 73.4 62.6 69% 30.23 0.0
23 09:15 Vrbl 6 10.00 Fair CLR 73.4 60.8 65% 30.23 0.0
23 08:55 NE 6 10.00 Fair CLR 71.6 62.6 73% 30.23 0.0
23 08:35 N 8 10.00 Fair CLR 69.8 60.8 73% 30.24 0.0
23 08:15 N 9 10.00 Fair CLR 69.8 60.8 73% 30.23 0.0
23 07:55 N 9 10.00 Fair CLR 68 60.8 78% 30.22 0.0
23 07:35 NE 9 10.00 Fair CLR 68 60.8 78% 30.22 0.0
23 07:15 N 9 10.00 Fair CLR 68 60.8 78% 30.21 0.0
23 06:55 N 8 10.00 Fair CLR 68 60.8 78% 30.21 0.0
23 06:35 N 7 10.00 Fair CLR 68 60.8 78% 30.21 0.0
23 06:15 N 6 10.00 Fair CLR 66.2 60.8 83% 30.2 0.0
23 05:55 N 7 10.00 Fair CLR 66.2 59 78% 30.2 0.0
23 05:35 N 6 10.00 Fair CLR 0 0 0% 30.2 0.0
23 05:15 N 6 10.00 A Few Clouds FEW037 68 59 73% 30.2 0.0
23 04:55 N 8 10.00 A Few Clouds FEW036 68 59 73% 30.19 0.0
23 04:35 N 7 10.00 Fair CLR 68 59 73% 30.19 0.0
23 04:15 N 7 10.00 Fair CLR 68 60.8 78% 30.2 0.0
23 03:55 NW 6 10.00 Fair CLR 68 62.6 83% 30.19 0.0
23 03:35 N 6 10.00 Fair CLR 69.8 64.4 83% 30.19 0.0
23 03:15 Calm 10.00 Fair CLR 69.8 62.6 78% 30.19 0.0
23 02:55 W 3 10.00 Fair CLR 69.8 62.6 78% 30.18 0.0
23 02:35 Calm 10.00 Fair CLR 71.6 60.8 69% 30.18 0.0
23 02:15 Calm 10.00 Fair CLR 68 62.6 83% 30.18 0.0
23 01:55 N 3 10.00 Fair CLR 68 62.6 83% 30.19 0.0
23 01:35 Calm 10.00 Mostly Cloudy FEW045 SCT075 BKN120 68 62.6 83% 30.18 0.0
23 01:15 NE 5 10.00 Overcast FEW050 OVC075 68 62.6 83% 30.2 0.0
23 00:55 NE 9 G 15 10.00 Overcast BKN075 OVC085 68 64.4 88% 30.2 0.0
23 00:35 NE 16 10.00 Mostly Cloudy FEW034 SCT047 BKN065 68 62.6 83% 30.22 0.0
23 00:15 NE 17 9.00 Overcast SCT033 BKN050 OVC110 71.6 62.6 73% 30.22 0.0
22 23:55 SE 7 10.00 Partly Cloudy SCT090 73.4 60.8 65% 30.2 0.0
22 23:35 SE 12 10.00 Fair CLR 73.4 60.8 65% 30.19 0.0
22 23:15 SE 8 10.00 Fair CLR 73.4 60.8 65% 30.18 0.0
22 22:55 SE 9 10.00 Fair CLR 73.4 62.6 69% 30.16 0.0
22 22:35 SE 10 10.00 Fair CLR 75.2 60.8 61% 77 30.15 0.0
22 22:15 SE 9 10.00 Thunderstorm in Vicinity CLR 75.2 62.6 65% 77 30.14 0.0
22 21:55 SE 10 10.00 Fair CLR 75.2 62.6 65% 77 30.13 0.0
22 21:35 SE 9 10.00 Fair CLR 75.2 62.6 65% 77 30.13 0.0
22 21:15 SE 14 10.00 Fair CLR 77 60.8 57% 79 30.11 0.0
22 20:55 SE 14 10.00 Fair CLR 77 60.8 57% 79 30.1 0.0
22 20:35 SE 13 10.00 Partly Cloudy SCT060 78.8 59 51% 80 30.1 0.0
22 20:15 SE 10 G 17 10.00 Partly Cloudy SCT060 78.8 60.8 54% 80 30.09 0.0
22 19:55 SE 15 10.00 Fair CLR 78.8 60.8 54% 80 30.09 0.0
22 19:35 SE 15 10.00 Fair CLR 80.6 60.8 51% 81 30.08 0.0
22 19:15 SE 12 10.00 Fair CLR 80.6 60.8 51% 81 30.08 0.0
22 18:55 SE 12 10.00 Partly Cloudy SCT060 82.4 60.8 48% 83 30.08 0.0
22 18:35 SE 12 10.00 A Few Clouds FEW060 84.2 59 43% 84 30.07 0.0
22 18:15 E 7 G 14 10.00 A Few Clouds FEW060 84.2 57.2 40% 83 30.07 0.0
22 17:55 E 8 10.00 A Few Clouds FEW060 84.2 57.2 40% 83 30.07 0.0
22 17:35 E 6 G 15 10.00 A Few Clouds FEW060 FEW070 84.2 59 43% 84 30.07 0.0
22 17:15 E 10 G 17 10.00 Partly Cloudy SCT055 84.2 59 43% 84 30.08 0.0
22 16:55 E 9 10.00 Mostly Cloudy SCT050 BKN060 82.4 59 45% 82 30.09 0.0
22 16:35 E 10 10.00 Mostly Cloudy SCT050 BKN055 82.4 59 45% 82 30.09 0.0
22 16:15 S 9 10.00 Partly Cloudy SCT048 82.4 60.8 48% 83 30.1 0.0
22 15:55 E 9 10.00 Fair CLR 82.4 60.8 48% 83 30.1 0.0
22 15:35 Vrbl 6 10.00 A Few Clouds FEW040 FEW049 82.4 60.8 48% 83 30.11 0.0
22 15:15 SE 7 10.00 Mostly Cloudy BKN039 BKN046 80.6 62.6 54% 82 30.12 0.0
22 14:55 Calm 10.00 Partly Cloudy SCT040 SCT046 80.6 60.8 51% 81 30.13 0.0
22 14:35 Vrbl 6 10.00 Fair CLR 80.6 62.6 54% 82 30.13 0.0
22 14:15 SE 6 G 12 10.00 A Few Clouds FEW036 78.8 62.6 58% 80 30.14 0.0
22 13:55 Vrbl 6 G 13 10.00 A Few Clouds FEW030 78.8 62.6 58% 80 30.15 0.0
22 13:35 SE 9 10.00 A Few Clouds FEW030 77 64.4 65% 79 30.16 0.0
22 13:15 SE 8 G 15 10.00 A Few Clouds FEW075 77 64.4 65% 79 30.17 0.0
22 12:55 SE 10 10.00 Mostly Cloudy FEW031 FEW039 BKN075 77 62.6 61% 79 30.17 0.0
22 12:35 Calm 10.00 Overcast FEW029 BKN070 OVC085 77 62.6 61% 79 30.18 0.0
22 12:15 S 3 10.00 Overcast FEW028 OVC085 77 62.6 61% 79 30.19 0.0
22 11:55 Calm 10.00 Mostly Cloudy FEW070 BKN085 77 62.6 61% 79 30.19 0.0
22 11:35 Calm 10.00 Mostly Cloudy FEW070 BKN085 75.2 62.6 65% 77 30.19 0.0
22 11:15 Calm 10.00 Overcast OVC075 73.4 62.6 69% 30.2 0.0
22 10:55 Calm 10.00 Overcast BKN070 OVC085 71.6 62.6 73% 30.2 0.0
22 10:35 NE 8 10.00 Overcast SCT075 BKN085 OVC110 71.6 62.6 73% 30.19 0.0
22 10:15 NE 7 10.00 Mostly Cloudy FEW075 BKN110 71.6 62.6 73% 30.2 0.0
22 09:55 NE 10 10.00 Mostly Cloudy BKN075 BKN100 69.8 62.6 78% 30.19 0.0
22 09:35 N 12 10.00 Overcast BKN075 BKN090 OVC100 69.8 62.6 78% 30.2 0.0
22 09:15 N 12 10.00 Mostly Cloudy BKN110 69.8 62.6 78% 30.19 0.0
22 08:55 N 13 10.00 Mostly Cloudy BKN110 68 62.6 83% 30.19 0.0
22 08:35 N 12 10.00 Mostly Cloudy BKN110 68 64.4 88% 30.19 0.0
22 08:15 N 10 10.00 Mostly Cloudy BKN100 68 64.4 88% 30.18 0.0
22 07:55 N 12 10.00 Overcast OVC100 66.2 64.4 94% 30.18 0.0
22 07:35 NE 10 10.00 Mostly Cloudy BKN110 66.2 64.4 94% 30.18 0.0
22 07:15 N 10 10.00 Mostly Cloudy BKN100 66.2 64.4 94% 30.17 0.0
22 06:55 N 9 9.00 Light Rain FEW045 FEW055 BKN100 66.2 64.4 94% 30.17 0.0 0.02
22 06:35 NE 6 7.00 Light Rain SCT042 SCT055 BKN065 66.2 66.2 100% 30.17 0.0
22 06:15 NE 6 10.00 Light Rain SCT043 BKN075 OVC120 66.2 66.2 100% 30.17 0.0
22 05:55 NE 5 10.00 Light Rain SCT029 BKN075 OVC120 66.2 66.2 100% 30.16 0.0 0.05
22 05:35 NE 3 7.00 Light Rain BKN030 OVC039 66.2 66.2 100% 30.16 0.0
22 05:15 NE 3 6.00 Light Rain BKN030 OVC038 66.2 66.2 100% 30.17 0.0
22 04:55 NE 3 6.00 Light Rain BKN032 OVC038 66.2 66.2 100% 30.17 0.0 0.13
22 04:35 NE 5 5.00 Rain OVC032 66.2 66.2 100% 30.17 0.0
22 04:15 NE 7 3.00 Rain SCT031 BKN036 OVC080 66.2 66.2 100% 30.17 0.0
22 03:55 NE 7 3.00 Rain FEW003 BKN033 OVC060 66.2 66.2 100% 30.18 0.0 0.19
22 03:35 N 10 2.50 Heavy Rain FEW004 BKN033 OVC050 66.2 66.2 100% 30.19 0.0
22 03:15 N 13 4.00 Rain FEW006 BKN037 OVC070 66.2 66.2 100% 30.19 0.0
22 02:55 N 15 G 21 3.00 Heavy Rain FEW003 SCT035 BKN044 66.2 64.4 94% 30.18 0.0 0.06
22 02:35 N 14 4.00 Rain SCT038 BKN046 OVC060 68 66.2 94% 30.18 0.0
22 02:15 NW 15 10.00 Overcast SCT039 BKN048 OVC055 69.8 64.4 83% 30.18 0.0
22 01:55 W 6 10.00 Overcast OVC055 71.6 62.6 73% 30.17 0.0
22 01:35 W 7 10.00 Overcast FEW046 OVC060 71.6 62.6 73% 30.17 0.0
22 01:15 W 9 10.00 Overcast BKN060 OVC080 73.4 60.8 65% 30.17 0.0
22 00:55 SE 8 G 14 10.00 Overcast BKN080 OVC100 77 57.2 51% 79 30.15 0.0
22 00:35 SE 12 10.00 Overcast OVC100 78.8 57.2 48% 80 30.14 0.0
22 00:15 SE 12 10.00 Mostly Cloudy BKN100 0 0 0% 30.14 0.0
21 23:55 E 13 10.00 A Few Clouds FEW110 78.8 59 51% 80 30.13 0.0
21 23:35 E 12 10.00 Mostly Cloudy BKN110 80.6 57.2 45% 81 30.12 0.0
21 23:15 E 9 10.00 Mostly Cloudy BKN110 80.6 57.2 45% 81 30.14 0.0
21 22:55 E 10 G 17 10.00 Mostly Cloudy BKN120 80.6 57.2 45% 81 30.13 0.0
21 22:35 SE 12 10.00 A Few Clouds FEW120 80.6 57.2 45% 81 30.13 0.0
21 22:15 E 14 10.00 Partly Cloudy SCT110 80.6 57.2 45% 81 30.13 0.0
21 21:55 E 14 10.00 Fair CLR 82.4 57.2 42% 82 30.12 0.0
21 21:35 SE 13 10.00 A Few Clouds FEW065 82.4 57.2 42% 82 30.12 0.0
21 21:15 SE 13 10.00 Partly Cloudy SCT060 82.4 57.2 42% 82 30.11 0.0
21 20:55 SE 9 10.00 A Few Clouds FEW060 FEW095 84.2 55.4 37% 83 30.1 0.0
21 20:35 E 8 10.00 Fair CLR 84.2 55.4 37% 83 30.11 0.0
21 20:15 E 12 10.00 A Few Clouds FEW065 84.2 57.2 40% 83 30.1 0.0
21 19:55 E 12 10.00 A Few Clouds FEW065 84.2 57.2 40% 83 30.1 0.0
21 19:35 SE 12 10.00 Fair CLR 86 57.2 38% 85 30.09 0.0
21 19:15 E 8 10.00 Fair CLR 86 57.2 38% 85 30.08 0.0
21 18:55 E 7 10.00 Fair CLR 86 57.2 38% 85 30.08 0.0
21 18:35 E 8 10.00 Fair CLR 86 57.2 38% 85 30.08 0.0
21 18:15 E 12 10.00 Fair CLR 87.8 57.2 35% 87 30.08 0.0
21 17:55 E 10 10.00 Fair CLR 87.8 57.2 35% 87 30.07 0.0
21 17:35 E 7 10.00 Fair CLR 87.8 55.4 33% 86 30.07 0.0
21 17:15 SE 8 10.00 A Few Clouds FEW080 FEW090 87.8 55.4 33% 86 30.08 0.0
21 16:55 NE 9 10.00 Partly Cloudy FEW080 SCT090 87.8 55.4 33% 86 30.09 0.0
21 16:35 E 8 G 14 10.00 Fair CLR 87.8 57.2 35% 87 30.09 0.0
21 16:15 E 7 10.00 Partly Cloudy SCT080 SCT090 87.8 57.2 35% 87 30.1 0.0
21 15:35 E 9 10.00 Mostly Cloudy BKN055 BKN065 87.8 57.2 35% 87 30.11 0.0
21 15:15 SE 9 10.00 Mostly Cloudy SCT055 BKN065 BKN085 86 57.2 38% 85 30.12 0.0
21 14:55 E 9 G 16 10.00 Mostly Cloudy BKN060 BKN070 86 59 40% 85 30.12 0.0
21 14:35 Vrbl 7 10.00 Partly Cloudy SCT060 87.8 57.2 35% 87 30.14 0.0
21 14:15 Vrbl 3 10.00 A Few Clouds FEW055 86 57.2 38% 85 30.15 0.0
21 13:55 Calm 10.00 Fair CLR 86 57.2 38% 85 30.16 0.0
21 13:35 N 7 10.00 A Few Clouds FEW050 FEW055 84.2 57.2 40% 83 30.17 0.0
21 13:15 Vrbl 5 G 14 10.00 Partly Cloudy SCT049 SCT055 84.2 59 43% 84 30.18 0.0
21 12:55 Calm 10.00 Fair CLR 82.4 59 45% 82 30.19 0.0
21 12:35 Vrbl 3 10.00 Fair CLR 82.4 59 45% 82 30.2 0.0
21 12:15 Vrbl 7 10.00 Fair CLR 80.6 60.8 51% 81 30.21 0.0
21 11:55 Vrbl 5 10.00 Fair CLR 80.6 60.8 51% 81 30.21 0.0
21 11:35 NE 8 G 14 10.00 Fair CLR 78.8 60.8 54% 80 30.21 0.0
21 11:15 Vrbl 5 10.00 A Few Clouds FEW110 78.8 60.8 54% 80 30.21 0.0
21 10:55 NE 8 10.00 Partly Cloudy SCT110 77 60.8 57% 79 30.21 0.0
21 10:35 Vrbl 6 10.00 A Few Clouds FEW110 77 60.8 57% 79 30.22 0.0
21 10:15 Vrbl 7 10.00 A Few Clouds FEW120 77 60.8 57% 79 30.21 0.0
21 09:55 Vrbl 5 10.00 A Few Clouds FEW120 78.8 60.8 54% 80 30.21 0.0
21 09:35 N 8 10.00 A Few Clouds FEW120 77 60.8 57% 79 30.21 0.0
21 09:15 NE 8 10.00 Partly Cloudy FEW100 SCT120 77 60.8 57% 79 30.21 0.0
21 08:55 N 10 10.00 Partly Cloudy SCT100 75.2 62.6 65% 77 30.21 0.0
21 08:35 N 13 10.00 Fair CLR 73.4 62.6 69% 30.21 0.0
21 08:15 N 15 10.00 Fair CLR 71.6 62.6 73% 30.21 0.0
21 07:55 N 12 G 18 10.00 Fair CLR 71.6 62.6 73% 30.2 0.0
21 07:35 N 8 10.00 Partly Cloudy SCT120 71.6 62.6 73% 30.19 0.0
21 07:15 Calm 10.00 A Few Clouds FEW095 FEW120 71.6 60.8 69% 30.17 0.0
21 06:55 Calm 10.00 A Few Clouds FEW095 71.6 60.8 69% 30.17 0.0
21 06:35 Calm 10.00 Fair CLR 71.6 60.8 69% 30.18 0.0
21 06:15 Calm 10.00 A Few Clouds FEW090 FEW120 71.6 60.8 69% 30.18 0.0
21 05:55 Calm 10.00 Overcast BKN085 OVC120 71.6 62.6 73% 30.18 0.0
21 05:35 E 6 10.00 Overcast FEW060 SCT075 OVC085 71.6 60.8 69% 30.18 0.0
21 05:15 E 8 10.00 Mostly Cloudy FEW024 SCT046 BKN075 71.6 62.6 73% 30.18 0.0
21 04:55 NE 8 10.00 Light Drizzle FEW022 FEW050 OVC080 71.6 60.8 69% 30.18 0.0
21 04:35 NE 10 10.00 Overcast BKN080 OVC095 71.6 60.8 69% 30.18 0.0
21 04:15 NE 13 G 20 10.00 Overcast OVC100 71.6 60.8 69% 30.17 0.0
21 03:55 NE 15 10.00 Mostly Cloudy FEW025 SCT060 BKN100 71.6 60.8 69% 30.17 0.0
21 03:35 NE 13 10.00 Overcast SCT026 BKN049 OVC085 71.6 60.8 69% 30.18 0.0
21 03:15 NE 10 10.00 Mostly Cloudy FEW050 BKN065 BKN110 71.6 60.8 69% 30.18 0.0
21 02:55 NE 13 10.00 A Few Clouds FEW080 FEW110 73.4 59 61% 30.18 0.0
21 02:35 NE 12 G 18 10.00 Mostly Cloudy FEW049 SCT065 BKN080 71.6 59 65% 30.19 0.0
21 02:15 NE 10 10.00 Mostly Cloudy FEW047 SCT070 BKN085 71.6 60.8 69% 30.2 0.0
21 01:55 NE 12 G 17 10.00 Mostly Cloudy FEW055 SCT065 BKN110 71.6 60.8 69% 30.2 0.0
21 01:35 N 16 10.00 Partly Cloudy SCT110 75.2 60.8 61% 77 30.19 0.0
21 01:15 N 9 10.00 Mostly Cloudy SCT080 BKN110 77 60.8 57% 79 30.19 0.0
21 00:55 N 9 G 15 10.00 Overcast BKN080 OVC100 77 59 54% 79 30.2 0.0
21 00:35 NE 9 10.00 Overcast BKN085 OVC100 80.6 59 48% 81 30.19 0.0
21 00:15 N 7 10.00 Overcast FEW060 SCT075 OVC100 80.6 57.2 45% 81 30.18 0.0
20 23:55 N 7 10.00 Overcast FEW043 SCT060 OVC075 80.6 57.2 45% 81 30.18 0.0
20 23:35 NE 7 10.00 Overcast SCT038 BKN055 OVC075 80.6 57.2 45% 81 30.18 0.0
20 23:15 NW 6 10.00 Overcast SCT041 BKN075 OVC095 80.6 57.2 45% 81 30.16 0.0
20 22:55 Vrbl 6 10.00 Overcast FEW029 BKN075 OVC100 80.6 59 48% 81 30.16 0.0
20 22:35 N 6 10.00 Overcast FEW060 SCT075 OVC100 80.6 59 48% 81 30.16 0.0
20 22:15 W 8 10.00 Partly Cloudy SCT110 80.6 59 48% 81 30.15 0.0
20 21:55 NW 9 10.00 Mostly Cloudy FEW046 SCT075 BKN120 82.4 57.2 42% 82 30.15 0.0
20 21:35 Calm 10.00 Overcast FEW070 SCT080 OVC120 80.6 59 48% 81 30.14 0.0
20 21:15 N 6 10.00 Mostly Cloudy BKN120 80.6 59 48% 81 30.12 0.0
20 20:55 W 8 10.00 A Few Clouds FEW110 80.6 59 48% 81 30.11 0.0
20 20:35 W 6 10.00 Fair CLR 78.8 59 51% 80 30.11 0.0
20 20:15 W 13 10.00 Fair CLR 78.8 60.8 54% 80 30.1 0.0
20 19:55 W 12 10.00 Thunderstorm in Vicinity FEW120 78.8 62.6 58% 80 30.1 0.0
20 19:35 NW 8 G 17 10.00 Mostly Cloudy BKN095 BKN120 80.6 60.8 51% 81 30.1 0.0
20 19:15 W 5 9.00 Thunderstorm in Vicinity OVC095 84.2 59 43% 84 30.08 0.0
20 18:55 Calm 10.00 Mostly Cloudy BKN090 BKN110 86 55.4 35% 85 30.08 0.0
20 18:35 SW 15 G 23 10.00 Thunderstorm SCT100 SCT120 87.8 55.4 33% 86 30.06 0.0
20 18:15 S 21 10.00 Thunderstorm and Breezy FEW120 93.2 51.8 24% 90 30.04 0.0
20 17:55 SE 12 10.00 Fair CLR 96.8 48.2 19% 93 30.04 0.0
20 17:35 SE 12 10.00 Fair CLR 98.6 50 19% 95 30.04 0.0
20 17:15 SE 14 10.00 Partly Cloudy SCT110 100.4 50 18% 97 30.04 0.0
20 16:55 E 8 10.00 Partly Cloudy SCT110 100.4 46.4 16% 97 30.04 0.0
20 16:35 Calm 10.00 Fair CLR 98.6 46.4 17% 95 30.05 0.0
20 16:15 S 8 10.00 Fair CLR 98.6 46.4 17% 95 30.05 0.0
20 15:55 Vrbl 3 G 12 10.00 Fair CLR 96.8 46.4 18% 93 30.06 0.0
20 15:35 Vrbl 6 10.00 Fair CLR 96.8 48.2 19% 93 30.07 0.0
20 15:15 Vrbl 5 G 15 10.00 Fair CLR 96.8 48.2 19% 93 30.08 0.0
20 14:55 E 9 10.00 Fair CLR 95 50 22% 92 30.09 0.0
20 14:35 Vrbl 6 G 14 10.00 Fair CLR 95 50 22% 92 30.1 0.0
20 14:15 Vrbl 8 10.00 Fair CLR 96.8 50 20% 94 30.11 0.0
20 13:55 Vrbl 6 10.00 Fair CLR 96.8 50 20% 94 30.12 0.0
20 13:35 Vrbl 3 10.00 Fair CLR 96.8 50 20% 94 30.13 0.0
20 13:15 N 5 10.00 Fair CLR 95 51.8 23% 92 30.14 0.0
20 12:55 Vrbl 3 10.00 Fair CLR 93.2 51.8 24% 90 30.15 0.0
20 12:35 SW 7 10.00 Fair CLR 95 51.8 23% 92 30.16 0.0
20 12:15 Vrbl 5 10.00 Fair CLR 93.2 51.8 24% 90 30.16 0.0
20 11:55 Vrbl 5 10.00 Fair CLR 91.4 51.8 26% 89 30.17 0.0
Date Time (mdt) Wind (mph) Vis. (mi.) Weather Sky Cond. Air Dwpt Max. Min. Relative Humidity Wind Chill (°F) Heat Index (°F) altimeter (in) sea level (mb) 1 hr 3 hr 6 hr
6 hour
Temperature (ºF) Pressure Precipitation (in)